SCP
0 0 0 0 0 0 0 0 0 0 0 0 0 0 0 0 0 0 0 0 0 0 0 0 0 0 0 0 0 0 0 0 0 0 0 0 0 0 0 0 0 0 0
0 0 0 0 0 0 0 0 0 0 0 0 0 0 0 0 0 0 0 0 0 0 0 0 0 0 0 0 0 0 0 0 0 0 0 0 0 0 0 0 0 0 0
0 0 0 0 0 0 0 0 0 0 0 0 0 0 0 0 0 0 0 0 0 0 0 0 0 0 0 0 0 0 0 0 0 0 0 0 0 0 0 0 0 0 0
0 0 0 0 0 0 0 0 0 0 0 0 0 0 0 0 0 0 0 0 0 0 0 0 0 0 0 0 0 0 0 0 0 0 0 0 0 0 0 0 0 0 0
0 0 0 0 0 0 0 0 0 0 0 0 0 0 0 0 0 0 0 0 0 0 0 0 0 0 0 0 0 0 0 0 0 0 0 0 0 0 0 0 0 0 0
0 0 0 0 0 0 0 0 0 0 0 0 0 0 0 0 0 0 0 0 0 0 0 0 0 0 0 0 0 0 0 0 0 0 0 0 0 0 0 0 0 0 0
0 0 0 0 0 0 0 0 0 0 0 0 0 0 0 0 0 0 0 0 0 0 0 0 0 0 0 0 0 0 0 0 0 0 0 0 0 0 0 0 0 0 0
0 0 0 0 0 0 0 0 0 0 0 0 0 0 0 0 0 0 0 0 0 0 0 0 0 0 0 0 0 0 0 0 0 0 0 0 0 0 0 0 0 0 0
0 0 0 0 0 0 0 0 0 0 0 0 0 0 0 0 0 0 0 0 0 0 0 0 0 0 0 0 0 0 0 0 0 0 0 0 0 0 0 0 0 0 0
0 0 0 0 0 0 0 0 0 0 0 0 0 0 0 0 0 0 0 0 0 0 0 0 0 0 0 0 0 0 0 0 0 0 0 0 0 0 0 0 0 0 0
0 0 0 0 0 0 0 0 0 0 0 0 0 0 0 0 0 0 0 0 0 0 0 0 0 0 0 0 0 0 0 0 0 0 0 0 0 0 0 0 0 0 0
0 0 0 0 0 0 0 0 0 0 0 0 0 0 0 0 0 0 0 0 0 0 0 0 0 0 0 0 0 0 0 0 0 0 0 0 0 0 0 0 0 0 0
0 0 0 0 0 0 0 0 0 0 0 0 0 0 0 0 0 0 0 0 0 0 0 0 0 0 0 0 0 0 0 0 0 0 0 0 0 0 0 0 0 0 0
0 0 0 0 0 0 0 0 0 0 0 0 0 0 0 0 0 0 0 0 0 0 0 0 0 0 0 0 0 0 0 0 0 0 0 0 0 0 0 0 0 0 0
0 0 0 0 0 0 0 0 0 0 0 0 0 0 0 0 0 0 0 0 0 0 0 0 0 0 0 0 0 0 0 0 0 0 0 0 0 0 0 0 0 0 0
0 0 0 0 0 0 0 0 0 0 0 0 0 0 0 0 0 0 0 0 0 0 0 0 0 0 0 0 0 0 0 0 0 0 0 0 0 0 0 0 0 0 0
0 0 0 0 0 0 -0 -0 -0 0 -0 -0 -0 0 0 0 0 0 0 0 0 0 0 0 0 0 0 0 0 0 0 0 0 0 0 0 0 0 0 0 0 0 0
0 0 0 0 0 -0 -0 0 -0 -0 0 0 0 0 0 0 0 0 0 0 0 0 0 0 0 0 0 0 0 0 0 0 0 0 0 0 0 0 0 0 0 0 0
0 0 -0 -0 -0 0 0 0 0 0 0 0 0 0 0 0 0 0 0 0 0 0 0 0 0 0 0 0 0 0 0 0 0 0 0 0 0 0 0 0 0 0 0
0 0 0 0 0 0 0 0 0 0 0 0 0 0 0 0 0 0 0 0 0 0 0 0 0 0 0 0 0 0 0 0 0 0 0 0 0 0 0 0 0 0 0
0 0 0 0 0 0 0 0 0 0 0 0 0 0 0 0 0 0 0 0 0 0 0 0 0 0 0 0 0 0 0 0 0 0 0 0 0 0 0 0 0 0 0
-0 0 0 0 0 0 0 0 0 0 0 0 0 0 0 0 0 0 0 0 0 0 0 0 0 0 0 0 0 0 0 0 0 0 0 0 0 0 0 0 0 0 0
0 0 0 0 0 0 0 0 0 0 0 0 0 0 0 0 0 0 0 0 0 0 0 0 0 0 0 0 0 0 0 0 0 0 0 0 0 0 0 0 0 0 0
0 0 0 0 0 0 0 0 0 0 0 0 0 0 0 0 0 0 0 0 0 0 0 0 0 0 0 0 0 0 0 0 0 0 0 0 0 0 0 0 0 0 0
0 0 0 0 0 0 0 0 0 0 0 0 0 0 0 0 0 0 0 0 0 0 0 0 0 0 0 0 0 0 0 0 0 0 0 0 0 0 0 0 0 0 0
0 0 0 0 0 0 0 0 0 0 0 0 0 0 0 0 0 0 0 0 0 0 0 0 0 0 0 0 0 0 0 0 0 0 0 0 0 0 0 0 0 0 0
Wind_Speed_500mb
72 78 83 80 80 70 68 69 66 64 64 60 59 55 47 45 41 38 34 29 25 20 20 18 15 13 9 7 8 9 8 5 2 7 9 11 11 11 11 14 18 20 20
60 78 83 81 84 77 71 68 69 67 65 59 58 55 51 48 43 37 35 30 24 21 21 17 13 11 8 7 8 9 8 4 4 10 15 11 15 18 17 17 18 20 21
75 77 79 86 85 84 78 73 74 70 66 66 65 55 51 51 47 42 35 28 24 22 20 17 14 11 8 5 5 6 7 9 8 7 6 9 10 10 16 12 14 21 23
70 73 80 85 88 87 79 75 76 78 72 68 65 62 55 54 46 39 33 29 27 26 23 19 16 12 7 4 4 8 9 10 13 15 15 12 11 6 7 12 13 21 22
68 73 76 84 87 82 79 84 83 80 78 70 66 60 57 57 46 43 36 28 31 29 24 21 17 11 6 4 9 9 11 10 11 12 13 13 12 11 8 8 10 18 20
64 65 77 85 83 76 71 69 81 83 82 70 66 59 57 54 55 47 39 38 35 30 27 21 14 8 7 9 10 10 7 11 12 12 12 12 10 11 9 12 19 20 22
66 76 83 88 84 80 75 71 75 76 80 71 68 62 60 59 56 55 50 47 37 31 25 20 13 5 9 11 8 7 10 11 13 14 12 11 10 11 12 14 18 22 26
78 84 89 85 85 83 78 74 72 68 74 73 69 68 67 68 68 57 51 39 33 30 23 14 4 14 29 11 7 8 12 14 15 15 14 13 13 14 16 18 21 26 23
72 72 83 84 84 79 78 75 78 77 75 74 74 76 74 73 63 51 42 37 37 26 15 9 24 38 14 11 8 10 13 17 19 18 17 16 17 18 19 21 24 26 21
72 84 83 80 78 82 79 80 78 80 79 77 76 79 69 60 47 44 47 40 30 15 18 36 27 17 17 14 11 12 16 19 20 20 20 20 20 21 21 23 24 27 29
72 72 81 80 80 77 72 69 74 76 76 80 80 70 59 51 53 46 40 27 18 21 30 25 20 19 16 15 15 17 20 22 23 25 25 25 24 25 26 25 27 30 34
65 64 63 66 67 68 69 66 66 68 61 55 56 54 55 56 44 44 34 24 20 24 24 22 19 19 20 19 20 22 25 27 28 30 30 30 31 31 29 28 30 33 37
53 55 55 55 58 58 55 53 53 52 51 47 47 46 40 47 26 21 18 21 24 24 23 19 19 23 22 24 27 29 30 31 33 36 37 38 37 36 35 34 35 37 39
42 47 48 44 39 36 28 26 26 30 37 41 39 47 40 25 17 18 19 23 24 22 21 22 24 25 27 31 34 35 35 37 40 42 44 43 42 43 41 41 42 41 40
35 38 40 38 34 33 27 30 34 39 43 50 50 35 28 22 19 22 22 24 25 26 24 24 27 30 34 37 39 40 41 44 46 49 50 49 50 50 48 48 46 46 41
38 36 33 32 31 29 36 42 41 41 44 39 32 32 26 15 19 21 23 26 26 26 26 28 33 37 40 41 44 47 48 50 54 55 56 55 57 56 53 52 50 51 46
28 29 29 31 35 43 50 51 49 45 42 35 32 26 20 22 22 25 27 27 28 31 33 35 38 41 43 45 50 53 53 56 58 59 59 61 63 61 57 55 54 54 50
20 24 28 34 37 39 42 41 38 34 30 26 22 27 29 27 25 26 28 32 36 39 39 40 43 46 46 51 55 57 60 61 61 62 62 65 66 64 60 59 60 56 55
20 24 29 34 36 34 34 32 28 21 17 20 25 27 25 25 28 33 34 38 41 44 48 45 49 53 50 55 57 60 66 65 68 66 67 68 69 63 62 68 65 61 60
29 28 28 26 22 20 17 12 11 17 24 24 22 25 28 31 35 37 42 45 45 46 50 53 54 56 56 53 58 62 71 75 75 71 70 69 71 68 68 71 70 69 61
32 26 23 19 14 11 10 13 20 26 24 24 27 29 32 36 38 43 44 42 46 50 53 56 53 56 58 58 63 68 73 77 77 79 76 72 68 72 72 71 72 69 57
32 25 17 13 8 5 9 11 13 18 22 24 25 27 31 35 38 40 40 43 48 53 55 59 62 60 61 63 66 70 74 75 83 86 82 77 71 67 69 63 59 61 65
37 30 23 18 14 11 8 7 8 11 15 16 19 22 25 30 35 39 42 48 52 58 61 63 70 70 67 70 72 75 76 77 82 87 86 77 76 71 64 58 58 67 72
42 36 28 25 20 16 14 14 15 16 18 22 26 29 33 37 42 47 50 55 57 62 66 69 75 78 77 76 74 74 75 76 78 80 77 81 76 75 69 66 60 73 73
31 25 23 22 20 19 19 20 21 23 25 28 31 35 39 42 45 48 51 56 56 60 67 68 71 75 76 72 73 74 75 74 71 71 73 75 79 81 79 77 69 74 76
31 27 26 23 21 21 22 25 27 31 33 34 37 41 43 44 46 49 48 46 52 50 54 59 65 68 73 71 70 71 72 66 61 65 74 69 74 82 83 83 79 73 72
Wind_Direction_500mb
209 212 211 209 205 202 198 196 192 190 190 188 192 199 193 197 195 203 209 218 233 246 246 252 257 250 240 252 267 289 324 345 207 203 196 203 226 257 291 315 327 338 345
194 205 206 206 204 203 201 198 196 195 195 199 198 199 197 202 205 207 215 223 240 242 251 251 240 228 228 251 285 308 308 315 229 258 239 236 250 258 282 305 324 342 345
198 203 205 207 205 206 204 201 199 200 198 200 199 200 200 205 207 212 219 230 242 237 240 234 218 214 223 250 280 287 294 309 320 326 269 242 239 240 264 288 327 343 335
197 206 208 207 207 209 210 207 205 204 205 205 208 210 211 208 213 221 229 234 236 230 221 211 206 211 218 222 287 303 307 312 312 312 308 302 284 251 245 267 294 327 324
189 198 212 211 209 209 212 212 210 210 208 211 212 216 214 220 218 222 225 233 233 219 207 198 196 194 197 305 300 302 306 311 318 313 307 308 309 299 284 274 293 321 320
206 224 220 211 208 208 210 207 209 211 208 211 212 219 213 218 223 217 219 225 213 206 195 191 184 186 291 296 296 289 319 342 332 322 315 312 310 309 318 312 317 329 332
190 198 208 205 206 204 205 201 204 207 206 209 214 215 218 220 227 225 219 217 202 190 188 181 181 290 311 299 288 314 340 336 339 331 323 314 310 312 314 321 324 327 333
190 199 204 203 204 204 201 200 202 203 205 210 214 216 215 221 223 217 204 198 183 181 182 178 291 309 313 270 274 309 334 333 332 322 314 310 308 318 325 326 333 331 328
193 200 201 202 202 201 198 200 201 202 205 210 214 215 221 218 210 201 194 173 165 170 169 275 300 290 241 243 269 313 318 323 322 310 302 306 313 317 319 323 329 332 326
176 191 195 195 198 198 197 201 205 205 206 208 213 217 213 214 203 182 166 167 173 169 271 285 274 227 230 246 281 303 307 310 306 297 297 303 303 305 310 313 318 323 321
177 182 182 187 192 195 201 203 202 208 210 212 212 200 197 183 180 175 156 173 204 253 273 253 232 231 239 262 281 288 296 297 298 295 294 293 297 298 299 305 313 316 315
173 182 183 185 190 192 194 197 196 197 202 195 187 189 185 175 160 152 167 213 249 250 232 230 232 243 255 268 277 282 287 293 293 288 288 289 289 289 292 298 304 306 309
170 173 176 179 182 182 185 185 184 182 187 190 178 166 160 139 147 192 206 247 238 228 235 234 245 253 263 273 274 278 283 286 286 285 284 282 284 286 289 292 296 299 301
160 162 166 169 167 169 166 169 170 165 170 158 146 136 148 160 185 209 228 234 236 240 240 242 253 263 268 270 274 280 282 281 280 279 278 280 282 281 284 286 290 292 294
154 155 155 156 161 161 161 174 164 162 159 149 145 145 164 188 214 230 229 232 241 246 248 258 268 273 272 274 277 279 279 278 278 279 281 281 279 278 281 282 283 285 291
141 140 141 155 153 158 153 147 136 143 148 152 152 173 193 238 245 233 229 250 255 261 269 272 272 271 275 277 279 280 280 279 281 282 282 280 280 281 281 281 283 285 292
126 131 140 148 145 152 147 146 142 151 165 172 185 202 250 262 252 234 250 263 269 273 274 272 275 278 279 279 279 281 282 282 282 281 281 281 280 279 278 278 278 280 287
127 137 148 144 146 145 145 148 154 162 178 199 226 255 264 257 242 255 273 280 277 276 276 278 280 280 281 279 280 282 282 282 284 284 284 280 279 277 277 275 273 275 277
125 132 139 142 146 147 156 165 171 187 220 264 281 280 266 250 256 269 281 285 280 283 284 282 279 279 279 278 280 283 285 287 288 287 284 282 280 280 277 272 271 272 271
104 115 126 131 138 150 166 189 230 260 276 280 281 264 257 262 271 280 283 281 281 279 277 279 280 280 282 281 285 286 285 286 289 289 286 283 282 281 276 270 270 268 269
104 111 120 129 146 176 213 248 269 278 279 276 280 276 273 272 278 282 285 280 278 280 281 282 284 284 286 286 285 285 286 289 290 287 286 285 283 280 276 270 266 269 270
97 102 113 122 140 199 239 255 273 286 292 293 290 285 282 281 280 281 284 287 286 286 287 287 285 283 283 286 287 287 287 288 287 286 287 286 285 278 272 263 259 259 263
85 85 86 85 80 65 40 7 338 326 323 318 309 302 301 296 293 291 289 287 284 283 284 286 286 288 289 289 288 288 288 287 284 285 286 286 282 278 271 255 250 252 257
74 70 69 68 62 52 33 13 354 333 320 316 308 300 292 287 285 284 285 285 288 292 293 295 297 300 299 298 298 294 290 287 284 284 282 283 280 277 270 263 246 249 255
71 65 56 49 36 24 11 356 345 331 317 307 302 301 302 303 302 302 303 303 304 302 302 303 302 303 303 305 303 301 296 292 287 282 276 272 268 264 260 263 258 254 257
61 55 48 36 21 4 348 335 325 320 315 312 311 310 310 309 310 309 308 305 306 306 307 310 312 313 310 311 310 307 303 296 292 287 284 276 267 263 262 261 262 259 257
Wind_Speed_850mb
72 78 83 80 80 70 68 69 66 64 64 60 59 55 47 45 41 38 34 29 25 20 20 18 15 13 9 7 8 9 8 5 2 7 9 11 11 11 11 14 18 20 20
60 78 83 81 84 77 71 68 69 67 65 59 58 55 51 48 43 37 35 30 24 21 21 17 13 11 8 7 8 9 8 4 4 10 15 11 15 18 17 17 18 20 21
75 77 79 86 85 84 78 73 74 70 66 66 65 55 51 51 47 42 35 28 24 22 20 17 14 11 8 5 5 6 7 9 8 7 6 9 10 10 16 12 14 21 23
70 73 80 85 88 87 79 75 76 78 72 68 65 62 55 54 46 39 33 29 27 26 23 19 16 12 7 4 4 8 9 10 13 15 15 12 11 6 7 12 13 21 22
68 73 76 84 87 82 79 84 83 80 78 70 66 60 57 57 46 43 36 28 31 29 24 21 17 11 6 4 9 9 11 10 11 12 13 13 12 11 8 8 10 18 20
64 65 77 85 83 76 71 69 81 83 82 70 66 59 57 54 55 47 39 38 35 30 27 21 14 8 7 9 10 10 7 11 12 12 12 12 10 11 9 12 19 20 22
66 76 83 88 84 80 75 71 75 76 80 71 68 62 60 59 56 55 50 47 37 31 25 20 13 5 9 11 8 7 10 11 13 14 12 11 10 11 12 14 18 22 26
78 84 89 85 85 83 78 74 72 68 74 73 69 68 67 68 68 57 51 39 33 30 23 14 4 14 29 11 7 8 12 14 15 15 14 13 13 14 16 18 21 26 23
72 72 83 84 84 79 78 75 78 77 75 74 74 76 74 73 63 51 42 37 37 26 15 9 24 38 14 11 8 10 13 17 19 18 17 16 17 18 19 21 24 26 21
72 84 83 80 78 82 79 80 78 80 79 77 76 79 69 60 47 44 47 40 30 15 18 36 27 17 17 14 11 12 16 19 20 20 20 20 20 21 21 23 24 27 29
72 72 81 80 80 77 72 69 74 76 76 80 80 70 59 51 53 46 40 27 18 21 30 25 20 19 16 15 15 17 20 22 23 25 25 25 24 25 26 25 27 30 34
65 64 63 66 67 68 69 66 66 68 61 55 56 54 55 56 44 44 34 24 20 24 24 22 19 19 20 19 20 22 25 27 28 30 30 30 31 31 29 28 30 33 37
53 55 55 55 58 58 55 53 53 52 51 47 47 46 40 47 26 21 18 21 24 24 23 19 19 23 22 24 27 29 30 31 33 36 37 38 37 36 35 34 35 37 39
42 47 48 44 39 36 28 26 26 30 37 41 39 47 40 25 17 18 19 23 24 22 21 22 24 25 27 31 34 35 35 37 40 42 44 43 42 43 41 41 42 41 40
35 38 40 38 34 33 27 30 34 39 43 50 50 35 28 22 19 22 22 24 25 26 24 24 27 30 34 37 39 40 41 44 46 49 50 49 50 50 48 48 46 46 41
38 36 33 32 31 29 36 42 41 41 44 39 32 32 26 15 19 21 23 26 26 26 26 28 33 37 40 41 44 47 48 50 54 55 56 55 57 56 53 52 50 51 46
28 29 29 31 35 43 50 51 49 45 42 35 32 26 20 22 22 25 27 27 28 31 33 35 38 41 43 45 50 53 53 56 58 59 59 61 63 61 57 55 54 54 50
20 24 28 34 37 39 42 41 38 34 30 26 22 27 29 27 25 26 28 32 36 39 39 40 43 46 46 51 55 57 60 61 61 62 62 65 66 64 60 59 60 56 55
20 24 29 34 36 34 34 32 28 21 17 20 25 27 25 25 28 33 34 38 41 44 48 45 49 53 50 55 57 60 66 65 68 66 67 68 69 63 62 68 65 61 60
29 28 28 26 22 20 17 12 11 17 24 24 22 25 28 31 35 37 42 45 45 46 50 53 54 56 56 53 58 62 71 75 75 71 70 69 71 68 68 71 70 69 61
32 26 23 19 14 11 10 13 20 26 24 24 27 29 32 36 38 43 44 42 46 50 53 56 53 56 58 58 63 68 73 77 77 79 76 72 68 72 72 71 72 69 57
32 25 17 13 8 5 9 11 13 18 22 24 25 27 31 35 38 40 40 43 48 53 55 59 62 60 61 63 66 70 74 75 83 86 82 77 71 67 69 63 59 61 65
37 30 23 18 14 11 8 7 8 11 15 16 19 22 25 30 35 39 42 48 52 58 61 63 70 70 67 70 72 75 76 77 82 87 86 77 76 71 64 58 58 67 72
42 36 28 25 20 16 14 14 15 16 18 22 26 29 33 37 42 47 50 55 57 62 66 69 75 78 77 76 74 74 75 76 78 80 77 81 76 75 69 66 60 73 73
31 25 23 22 20 19 19 20 21 23 25 28 31 35 39 42 45 48 51 56 56 60 67 68 71 75 76 72 73 74 75 74 71 71 73 75 79 81 79 77 69 74 76
31 27 26 23 21 21 22 25 27 31 33 34 37 41 43 44 46 49 48 46 52 50 54 59 65 68 73 71 70 71 72 66 61 65 74 69 74 82 83 83 79 73 72
Wind_Direction_850mb
209 212 211 209 205 202 198 196 192 190 190 188 192 199 193 197 195 203 209 218 233 246 246 252 257 250 240 252 267 289 324 345 207 203 196 203 226 257 291 315 327 338 345
194 205 206 206 204 203 201 198 196 195 195 199 198 199 197 202 205 207 215 223 240 242 251 251 240 228 228 251 285 308 308 315 229 258 239 236 250 258 282 305 324 342 345
198 203 205 207 205 206 204 201 199 200 198 200 199 200 200 205 207 212 219 230 242 237 240 234 218 214 223 250 280 287 294 309 320 326 269 242 239 240 264 288 327 343 335
197 206 208 207 207 209 210 207 205 204 205 205 208 210 211 208 213 221 229 234 236 230 221 211 206 211 218 222 287 303 307 312 312 312 308 302 284 251 245 267 294 327 324
189 198 212 211 209 209 212 212 210 210 208 211 212 216 214 220 218 222 225 233 233 219 207 198 196 194 197 305 300 302 306 311 318 313 307 308 309 299 284 274 293 321 320
206 224 220 211 208 208 210 207 209 211 208 211 212 219 213 218 223 217 219 225 213 206 195 191 184 186 291 296 296 289 319 342 332 322 315 312 310 309 318 312 317 329 332
190 198 208 205 206 204 205 201 204 207 206 209 214 215 218 220 227 225 219 217 202 190 188 181 181 290 311 299 288 314 340 336 339 331 323 314 310 312 314 321 324 327 333
190 199 204 203 204 204 201 200 202 203 205 210 214 216 215 221 223 217 204 198 183 181 182 178 291 309 313 270 274 309 334 333 332 322 314 310 308 318 325 326 333 331 328
193 200 201 202 202 201 198 200 201 202 205 210 214 215 221 218 210 201 194 173 165 170 169 275 300 290 241 243 269 313 318 323 322 310 302 306 313 317 319 323 329 332 326
176 191 195 195 198 198 197 201 205 205 206 208 213 217 213 214 203 182 166 167 173 169 271 285 274 227 230 246 281 303 307 310 306 297 297 303 303 305 310 313 318 323 321
177 182 182 187 192 195 201 203 202 208 210 212 212 200 197 183 180 175 156 173 204 253 273 253 232 231 239 262 281 288 296 297 298 295 294 293 297 298 299 305 313 316 315
173 182 183 185 190 192 194 197 196 197 202 195 187 189 185 175 160 152 167 213 249 250 232 230 232 243 255 268 277 282 287 293 293 288 288 289 289 289 292 298 304 306 309
170 173 176 179 182 182 185 185 184 182 187 190 178 166 160 139 147 192 206 247 238 228 235 234 245 253 263 273 274 278 283 286 286 285 284 282 284 286 289 292 296 299 301
160 162 166 169 167 169 166 169 170 165 170 158 146 136 148 160 185 209 228 234 236 240 240 242 253 263 268 270 274 280 282 281 280 279 278 280 282 281 284 286 290 292 294
154 155 155 156 161 161 161 174 164 162 159 149 145 145 164 188 214 230 229 232 241 246 248 258 268 273 272 274 277 279 279 278 278 279 281 281 279 278 281 282 283 285 291
141 140 141 155 153 158 153 147 136 143 148 152 152 173 193 238 245 233 229 250 255 261 269 272 272 271 275 277 279 280 280 279 281 282 282 280 280 281 281 281 283 285 292
126 131 140 148 145 152 147 146 142 151 165 172 185 202 250 262 252 234 250 263 269 273 274 272 275 278 279 279 279 281 282 282 282 281 281 281 280 279 278 278 278 280 287
127 137 148 144 146 145 145 148 154 162 178 199 226 255 264 257 242 255 273 280 277 276 276 278 280 280 281 279 280 282 282 282 284 284 284 280 279 277 277 275 273 275 277
125 132 139 142 146 147 156 165 171 187 220 264 281 280 266 250 256 269 281 285 280 283 284 282 279 279 279 278 280 283 285 287 288 287 284 282 280 280 277 272 271 272 271
104 115 126 131 138 150 166 189 230 260 276 280 281 264 257 262 271 280 283 281 281 279 277 279 280 280 282 281 285 286 285 286 289 289 286 283 282 281 276 270 270 268 269
104 111 120 129 146 176 213 248 269 278 279 276 280 276 273 272 278 282 285 280 278 280 281 282 284 284 286 286 285 285 286 289 290 287 286 285 283 280 276 270 266 269 270
97 102 113 122 140 199 239 255 273 286 292 293 290 285 282 281 280 281 284 287 286 286 287 287 285 283 283 286 287 287 287 288 287 286 287 286 285 278 272 263 259 259 263
85 85 86 85 80 65 40 7 338 326 323 318 309 302 301 296 293 291 289 287 284 283 284 286 286 288 289 289 288 288 288 287 284 285 286 286 282 278 271 255 250 252 257
74 70 69 68 62 52 33 13 354 333 320 316 308 300 292 287 285 284 285 285 288 292 293 295 297 300 299 298 298 294 290 287 284 284 282 283 280 277 270 263 246 249 255
71 65 56 49 36 24 11 356 345 331 317 307 302 301 302 303 302 302 303 303 304 302 302 303 302 303 303 305 303 301 296 292 287 282 276 272 268 264 260 263 258 254 257
61 55 48 36 21 4 348 335 325 320 315 312 311 310 310 309 310 309 308 305 306 306 307 310 312 313 310 311 310 307 303 296 292 287 284 276 267 263 262 261 262 259 257